TIME,DELAY(SENSOR),PRES,T(CTD),SAL,OXYGEN,RAWTEMP,T(OPTODE),TCPHASE,FLUOR,BETA(BETA700),BETA(BETA412),BETA(BETA440),CDOM,C(CSC),ED(ED411.90),ED(ED443.80),ED(ED489.40),ED(ED554.70),LU(LU412.20),LU(LU443.80),LU(LU489.40),LU(LU555.00),COMP,TILTX,TILTX(TILTY),CHECK
1345994278,5804,493.1700134277344000,17.8027992248535160,36.5214996337890600,237.0211029052734400,161.8751068115234400,17.7982292175292970,30.7255897521972660,50,102,97,80,67,13717,2146954706,2147513216,2147264841,2147464621,2147085824,2146951040,2147654272,2147126692,2801,-2,8,7172
1345994395,5805,481.7699890136719000,17.8362007141113280,36.5259017944335940,237.3981933593750000,160.7216033935547000,17.8330497741699220,30.6919593811035160,51,103,97,79,66,13720,2146956589,2147512329,2147262710,2147463323,2147088420,2146957705,2147653138,2147126628,2889,-2,8,56934
1345994510,5805,470.2099914550781000,17.8906993865966800,36.5341987609863300,237.3800964355468800,158.9427947998047000,17.8867492675781250,30.6692600250244140,50,100,95,79,65,13717,2146953600,2147512996,2147266761,2147462784,2147086656,2146954953,2147653110,2147121289,2543,-2,8,8186
1345994625,5805,458.5000000000000000,17.9335994720459000,36.5406990051269500,237.1522979736328000,157.5558013916015600,17.9286308288574220,30.6614494323730470,50,101,96,81,67,13720,2146956708,2147514678,2147265362,2147463762,2147086829,2146955392,2147648886,2147126153,2949,-2,8,49551
1345994743,5805,447.8699951171875000,17.9785995483398440,36.5480995178222660,237.2790069580078000,156.0475006103515600,17.9741802215576170,30.6353092193603500,50,103,98,79,66,13718,2146953956,2147513910,2147264594,2147461165,2147087369,2146955209,2147650624,2147121344,2787,-2,8,17554
1345994894,5806,436.6799926757812500,18.0104007720947270,36.5531005859375000,237.2519073486328000,154.9620056152343800,18.0069599151611330,30.6221294403076170,50,102,98,80,67,13717,2146954185,2147512009,2147263232,2147460516,2147090715,2146957558,2147653997,2147123538,2787,-2,8,37253
1345995050,5805,423.8999938964844000,18.0723991394042970,36.5615005493164060,236.7088928222656200,153.0149993896484400,18.0657691955566400,30.6220493316650400,50,103,97,80,65,13719,2146957101,2147513517,2147262317,2147459913,2147080658,2146953856,2147653330,2147124342,3069,-2,8,12487
1345995165,5804,412.7099914550781000,18.0955009460449220,36.5646018981933600,236.5041961669922000,152.0897979736328000,18.0937099456787100,30.6194801330566400,50,101,97,80,65,13719,2146955419,2147510144,2147266560,2147461248,2147091876,2146957056,2147653942,2147124443,2732,-3,8,33389
1345995280,5805,401.8599853515625000,18.1366004943847660,36.5685997009277340,235.7667999267578000,150.6674957275390600,18.1366691589355470,30.6358604431152340,50,103,97,81,65,13715,2146957604,2147510683,2147265051,2147459766,2147083044,2146953152,2147649618,2147122825,2380,-2,8,53808
1345995397,5804,391.2000122070312500,18.1963996887207030,36.5741996765136700,234.9909973144531200,148.7449035644531200,18.1947593688964840,30.6472091674804700,50,102,97,80,65,13707,2146954980,2147513161,2147265974,2147458185,2147088091,2146954971,2147650989,2147120713,2435,-2,8,37390
1345995524,5805,380.1900024414062500,18.2745990753173830,36.5834999084472660,233.9264068603515600,146.2189941406250000,18.2710800170898440,30.6650905609130860,50,103,97,80,65,13714,2146957522,2147515840,2147266221,2147458523,2147082806,2146956406,2147649353,2147124992,2461,-2,8,33402
1345995653,5803,369.5000000000000000,18.3423995971679700,36.5887985229492200,232.6309051513672000,144.0292053222656200,18.3372592926025400,30.6987895965576170,51,105,98,82,66,13712,2146959021,2147508489,2147266432,2147459364,2147075949,2146950454,2147653540,2147123730,3186,-2,8,38323
1345995792,5805,358.2699890136719000,18.4284992218017580,36.5970993041992200,230.8148956298828000,141.0471954345703000,18.4273891448974600,30.7476692199707030,51,104,98,80,66,13711,2146957056,2147514569,2147266203,2147458934,2147084461,2146959076,2147651949,2147123273,3117,-2,8,29218
1345995931,5805,347.4200134277344000,18.5147991180419920,36.6044998168945300,229.2321014404297000,138.2442932128906200,18.5121307373046880,30.7883491516113280,52,107,99,80,67,13710,2146954194,2147512082,2147263387,2147460032,2147080018,2146955520,2147653513,2147122651,3157,-2,8,65091
1345996066,5805,335.2399902343750000,18.6583003997802730,36.6158981323242200,227.1945953369140600,133.5048065185547000,18.6554508209228500,30.8262596130371100,53,104,97,81,67,13704,2146953097,2147512932,2147265782,2147459602,2147079990,2146958729,2147649280,2147123190,3232,-2,7,29558
1345996181,5808,323.2200012207031000,18.7607994079589840,36.6142005920410160,226.1195068359375000,129.3220062255859400,18.7819900512695300,30.8239307403564450,53,105,97,81,66,13710,2146954715,2147517110,2147269604,2147457142,2147081462,2146958025,2147650761,2147122715,822,-2,8,50115
1345996284,5803,312.3699951171875000,18.8994007110595700,36.6137008666992200,227.3419036865234400,125.7922973632812500,18.8888092041015620,30.7161693572998050,52,102,97,80,67,13710,2146956233,2147514752,2147270418,2147456201,2147080420,2146962057,2147651584,2147123062,948,-2,8,65274
1345996402,5805,300.7500000000000000,19.0748996734619140,36.6268005371093750,226.0717926025390600,119.8022003173828100,19.0701503753662100,30.7000007629394530,51,103,97,80,67,13711,2146953353,2147515757,2147274624,2147456777,2147089069,2146964608,2147649636,2147123931,1725,-2,8,63054
1345996529,5807,289.6700134277344000,19.1539993286132800,36.5983009338378900,235.1958007812500000,117.3184967041015600,19.1453704833984380,30.2216892242431640,51,103,96,80,65,13711,2146954962,2147515291,2147276141,2147456192,2147083145,2146959817,2147655177,2147120932,2442,-3,8,54840
1345996670,5804,278.0299987792969000,19.2532005310058600,36.5974998474121100,236.3197021484375000,113.7275009155273400,19.2541599273681640,30.1211490631103500,51,103,98,81,66,13709,2146956013,2147516068,2147275437,2147454683,2147084059,2146957869,2147653586,2147126336,1392,-2,8,50122
1345996797,5806,267.5100097656250000,19.3325004577636720,36.6002998352050800,243.1636962890625000,111.7157974243164000,19.3151092529296880,29.7763404846191400,52,104,99,81,64,13710,2146955858,2147517494,2147282066,2147450752,2147081161,2146964598,2147656649,2147124964,1169,-2,8,40490
1345996924,5807,256.8900146484375000,19.3917007446289060,36.5905990600585940,246.9096984863281200,109.5322036743164000,19.3812904357910160,29.5782299041748050,58,105,98,81,64,13706,2146950326,2147514989,2147289728,2147454272,2147080512,2146965120,2147657828,2147123501,925,-3,8,63017
1345997065,5809,245.1699981689453000,19.4290008544921880,36.5895996093750000,250.2386932373047000,108.1390991210937500,19.4235305786132800,29.4122505187988280,66,107,100,81,64,13699,2146954998,2147524854,2147296740,2147454628,2147079634,2146967963,2147663661,2147125430,988,-2,8,44757
1345997192,5806,235.0200042724609400,19.5077991485595700,36.5990982055664060,248.3134002685547000,105.6931991577148400,19.4976902008056640,29.4659996032714840,70,108,98,80,66,13695,2146956041,2147533732,2147328612,2147453851,2147082925,2146974208,2147676086,2147126354,721,-2,8,23285
1345997347,5808,222.6300048828125000,19.6173992156982420,36.6012992858886700,251.2010955810547000,101.0752029418945300,19.6377506256103500,29.2787609100341800,76,107,99,81,64,13688,2146958619,2147547053,2147376795,2147451264,2147086930,2146976566,2147698267,2147126720,366,-3,8,22830
1345997474,5804,211.3899993896484400,19.8978004455566400,36.6226997375488300,250.4503021240234400,93.0756378173828100,19.8805503845214840,29.2092704772949220,71,107,97,82,66,13689,2146957787,2147561993,2147404818,2147452315,2147088429,2146987419,2147707474,2147128356,643,-2,8,62576
1345997615,5807,200.2100067138672000,20.2315006256103500,36.6687011718750000,240.1186065673828000,81.9961929321289000,20.2171993255615230,29.5315799713134770,58,106,98,81,65,13698,2146961901,2147606747,2147526838,2147452589,2147088420,2147013403,2147767460,2147134052,711,-2,8,65301
1345997670,5807,196.0299987792968800,20.4783000946044920,36.7303009033203100,227.5447998046875000,73.4259719848632800,20.4779090881347660,30.0181007385253900,60,108,100,81,67,13693,2146964333,2147610212,2147522240,2147449078,2147089709,2147020150,2147769508,2147130953,641,-2,8,12734
1345997725,5804,191.7299957275390600,20.5991992950439450,36.7541007995605500,213.0372009277343800,69.5359268188476600,20.5963401794433600,30.7062091827392580,76,112,99,81,67,13679,2146968155,2147626660,2147553142,2147448658,2147094948,2147027574,2147781878,2147132873,678,-2,8,35455
1345997780,5804,187.3600006103515600,20.5396003723144530,36.7146987915039060,216.9299011230468800,71.7671432495117200,20.5284004211425780,30.5314998626709000,72,111,99,83,66,13681,2146975140,2147663744,2147628644,2147448630,2147094217,2147049472,2147816950,2147137426,538,-3,8,58386
1345997835,5805,182.8899993896484400,20.5179004669189450,36.6394004821777340,238.3450012207031200,71.9194793701171900,20.5237598419189450,29.4838504791259770,68,109,100,82,65,13672,2146977371,2147673709,2147636452,2147446802,2147095506,2147057901,2147815542,2147137206,652,-2,8,21567
1345997910,5803,177.2899932861328000,20.7735004425048830,36.6666984558105500,249.5480957031250000,63.5626907348632800,20.7783107757568360,28.8728809356689450,67,107,99,81,66,13687,2146985408,2147728841,2147758692,2147447753,2147100946,2147089819,2147875794,2147140178,976,-3,8,62466
1345997977,5807,173.1100006103515600,20.8204994201660160,36.6800003051757800,244.9788970947265600,62.1396903991699200,20.8216800689697270,29.0571308135986330,62,105,97,81,65,13698,2147008237,2147868214,2148078208,2147447369,2147114212,2147164214,2148032740,2147147008,591,-3,8,26031
1345998044,5806,168.8899993896484400,20.8402996063232420,36.6865005493164060,241.9394073486328000,61.4051399230957000,20.8440704345703120,29.1845893859863280,59,105,98,81,65,13700,2147033490,2147964644,2148291154,2147448411,2147121929,2147226934,2148128155,2147160457,157,-3,9,35275
1345998111,5806,164.9400024414062500,20.8355998992919920,36.6735992431640600,241.2404937744140600,61.8211402893066400,20.8313903808593750,29.2217502593994140,62,105,98,80,66,13696,2147057124,2148074962,2148530541,2147447853,2147137892,2147292672,2148254409,2147164626,3368,-3,9,32202
1345998178,5805,161.3200073242187500,20.9752006530761720,36.6814002990722660,241.3824005126953000,56.5195198059082000,20.9930706024169920,29.1475505828857420,59,102,97,81,65,13699,2147031862,2147902656,2148112402,2147446518,2147121316,2147191853,2148054518,2147149869,3412,-3,8,45956
1345998257,5804,158.0800018310547000,21.2427005767822270,36.7151985168457000,240.4915924072265600,49.2252693176269500,21.2157096862792970,29.0953407287597660,61,103,97,81,65,13703,2147049078,2147986093,2148281846,2147450002,2147134720,2147248256,2148140480,2147156836,3259,-2,8,49546
1345998432,5806,154.1300048828125000,21.4519004821777340,36.7535018920898440,233.1950073242187500,42.4954299926757800,21.4213409423828120,29.3482494354248050,59,104,97,80,66,13698,2147047670,2147926326,2148107702,2147446482,2147131638,2147219236,2148060269,2147149385,167,-2,8,54460
1345998567,5804,149.4900054931640600,21.4694995880126950,36.7318992614746100,230.1925048828125000,40.2272415161132800,21.4906806945800780,29.4619102478027340,63,105,98,80,65,13701,2147162139,2148419830,2149150601,2147454592,2147191981,2147526189,2148578166,2147185664,3027,-3,8,37145
1345998658,5802,145.5399932861328000,21.7126007080078120,36.7669982910156250,228.1130981445312500,33.6755218505859400,21.6911392211914060,29.4781894683837900,61,106,97,80,65,13697,2147197394,2148506212,2149292443,2147452580,2147212480,2147581083,2148650148,2147188928,1643,-3,9,34586
1345998773,5805,142.1699981689453000,21.7891006469726560,36.7583007812500000,227.0574035644531200,30.8133106231689450,21.7787799835205080,29.4927101135253900,66,104,98,81,65,13699,2147210605,2148502720,2149229129,2147451328,2147217417,2147572242,2148618203,2147189686,1086,-3,9,25271
1345998935,5804,137.8099975585937500,21.9585990905761720,36.7466011047363300,227.6930999755859400,25.3097705841064450,21.9474105834960940,29.3914699554443360,73,108,98,81,65,13689,2147274349,2148617956,2149382025,2147454043,2147245613,2147630866,2148671725,2147192347,3446,-3,8,8328
1345999038,5804,133.7400054931640600,22.0807991027832030,36.7332992553710940,229.0626983642578000,21.0364704132080080,22.0784492492675780,29.2712192535400400,80,110,97,81,64,13683,2147324864,2148708781,2149508013,2147453403,2147271250,2147676754,2148716699,2147197376,3147,-2,8,24733
1345999129,5805,129.7799987792968800,22.2653007507324220,36.7346992492675800,229.3764038085937500,15.2563800811767580,22.2558498382568360,29.1827392578125000,82,111,98,81,65,13678,2147430089,2148954834,2149947401,2147464182,2147319844,2147804690,2148911762,2147209609,2987,-3,8,24223
1345999219,5803,125.4700012207031200,22.5737991333007800,36.7422981262207000,227.5829010009765600,5.7557969093322750,22.5478305816650400,29.1481208801269530,90,112,99,82,65,13671,2147695954,2149672457,2151242651,2147477184,2147444918,2148187648,2149492306,2147251968,2466,-2,8,45727
1345999298,5806,121.3300018310546900,22.6725997924804700,36.7086982727050800,231.2783966064453000,2.4327280521392822,22.6500701904296880,28.9302692413330080,87,111,97,83,65,13666,2147761014,2149700416,2151162276,2147481234,2147470976,2148190144,2149449728,2147248731,3218,-3,9,48969
1345999377,5808,117.5199966430664000,22.7380008697509770,36.7015991210937500,232.6383056640625000,-0.1102477014064789,22.7283592224121100,28.8342494964599600,93,110,98,83,65,13667,2148069302,2150396352,2152344091,2147502061,2147610651,2148548608,2149957787,2147288347,201,-3,8,62358
1345999468,5804,113.5999984741211000,22.9274005889892580,36.6938018798828100,232.2855072021484400,-6.0620517730712890,22.9117298126220700,28.7758197784423830,97,113,98,83,64,13654,2148146386,2150413202,2152210861,2147502070,2147642459,2148530258,2149861129,2147286930,2559,-3,9,59651
1345999597,5805,110.6900024414062500,23.2768001556396500,36.6259994506835940,233.3321075439453000,-15.2008104324340820,23.1936893463134770,28.6124591827392580,105,114,99,82,64,13646,2148536493,2151234084,2153525924,2147532114,2147821897,2148945837,2150445174,2147335158,1382,-3,8,32016
1346000131,5805,106.4899978637695300,23.6560993194580080,36.5876007080078100,234.4156036376953000,-29.5753097534179700,23.6382408142089840,28.3827304840087900,126,117,99,83,63,13634,2148574061,2151029668,2152903606,2147521115,2147824841,2148734235,2150042102,2147310592,2647,-3,8,963
1346000281,5806,101.8099975585937500,23.9708995819091800,36.5914993286132800,232.9683074951172000,-39.5899505615234400,23.9487400054931640,28.3250007629394530,148,122,101,82,65,13592,2149442861,2152752493,2155422912,2147585846,2148206299,2149465517,2150986971,2147391552,991,-2,8,21964
1346000384,5803,99.7600021362304700,24.1672000885009770,36.5681991577148440,231.5588073730468800,-46.0274887084960940,24.1486892700195300,28.3101406097412100,162,131,100,86,64,13581,2149856941,2153534153,2156475894,2147610870,2148362093,2149731337,2151298093,2147422034,3434,-3,9,50988
1346000570,5806,96.9499969482421900,24.2618007659912100,36.5570983886718750,231.4445953369140600,-48.6032218933105500,24.2287693023681640,28.2832603454589840,163,127,99,84,63,13567,2151011035,2155712969,2159309906,2147682441,2148790454,2150453001,2152186139,2147512640,2940,-2,8,28869
1346000625,5802,94.8300018310546900,24.4393997192382800,36.5301017761230500,231.8146057128906200,-54.5296516418457000,24.4132003784179700,28.1924800872802730,176,129,101,84,63,13560,2151778121,2157138331,2161051373,2147728896,2149074669,2150900434,2152739017,2147566902,385,-3,8,17470
1346000680,5807,93.1200027465820300,24.5254001617431640,36.5186004638671900,232.8177947998047000,-57.5027008056640600,24.5058097839355470,28.1094303131103500,174,128,101,84,63,13552,2152223707,2157873819,2161768594,2147754560,2149233773,2151099574,2152921444,2147591926,510,-2,8,58275
1346000759,5804,91.3700027465820300,24.6320991516113280,36.5045013427734400,233.6882019042968800,-60.7508316040039060,24.6070709228515620,28.0293407440185550,178,129,101,84,63,13560,2152767990,2158769974,2162504512,2147786395,2149425654,2151373129,2153181046,2147628690,652,-2,8,52775
1346000873,5808,89.1699981689453100,24.7439994812011720,36.4925994873046900,234.1271057128906200,-64.9441833496093800,24.7378997802734380,27.9575195312500000,151,127,100,84,63,13547,2154611218,2161999872,2166184219,2147891154,2150115392,2152483337,2154439716,2147760749,790,-3,9,47420
1346000952,5806,87.4100036621093800,25.0603008270263670,36.4499015808105500,233.6013946533203000,-72.5708389282226600,24.9761905670166000,27.8871707916259770,112,125,101,85,63,13577,2155417316,2163141330,2167153115,2147925915,2150459300,2152981842,2154857654,2147809499,560,-2,8,43090
1346001162,5806,85.1200027465820300,25.2106990814209000,36.4373016357421900,232.0823059082031200,-79.5834197998046900,25.1956806182861330,27.8701190948486330,100,122,100,84,65,13591,2157790738,2166977472,2171362880,2148090468,2151506002,2154755547,2156726162,2147994934,322,-2,8,31475
1346001217,5806,83.0800018310546900,25.3043003082275400,36.4217987060546900,231.3032073974609400,-82.4749374389648400,25.2863006591796880,27.8703002929687500,96,124,100,83,64,13595,2159793133,2170056484,2174679433,2148235968,2152373851,2156141668,2158144045,2148141961,807,-2,8,4130
1346001284,5806,80.9899978637695300,25.3561992645263670,36.4113998413085940,231.2857971191406200,-84.3271179199218800,25.3443698883056640,27.8483905792236330,90,122,101,85,63,13594,2160325952,2170341851,2174318656,2148262189,2152641481,2156430729,2158210898,2148160073,912,-2,8,28022
1346001363,5806,79.2699966430664000,25.4507999420166000,36.3858985900878900,232.1248931884765600,-87.2476501464843800,25.4360008239746100,27.7737598419189450,91,119,101,85,61,13594,2160445421,2169947748,2173289600,2148276854,2152767524,2156444397,2157948050,2148139181,2695,-2,9,27801
1346001453,5809,77.1500015258789000,25.6548004150390620,36.3548011779785160,233.6060943603515600,-93.1091766357421900,25.6201095581054700,27.6343002319335940,87,123,101,86,63,13588,2161776612,2171468278,2174326107,2148363419,2153518116,2157444352,2158685147,2148208548,2640,-2,9,41272
1346001520,5806,75.3499984741211000,25.7262001037597660,36.3451004028320300,234.0597991943359400,-96.0136566162109400,25.7114391326904300,27.5779399871826170,85,122,103,86,62,13592,2162948251,2172813028,2175339675,2148463451,2154182710,2158328859,2159377627,2148288566,2763,-2,8,20483
1346001611,5806,73.5800018310546900,25.8281002044677730,36.3381004333496100,234.2734069824218800,-99.6332626342773400,25.8253498077392580,27.5238990783691400,86,121,101,85,62,13588,2165576438,2176524498,2179091008,2148669906,2155564800,2160348150,2161265408,2148480128,3308,-2,8,35887
1346001761,5807,71.1500015258789000,25.9906997680664060,36.2991981506347660,235.8220062255859400,-104.6232986450195300,25.9825706481933600,27.3931808471679700,83,123,104,87,61,13545,2176858614,2193084050,2196434486,2149615204,2161249234,2168786962,2169449965,2149338020,1733,-3,8,87
1346001828,5805,68.9400024414062500,26.2689990997314450,36.2683982849121100,235.5959930419922000,-112.6911010742187500,26.2371997833251950,27.3047103881835940,82,126,101,86,61,13574,2181917458,2199373430,2202149997,2150093257,2164115638,2172521499,2172484105,2149686509,1110,-3,9,19364
1346001895,5807,67.2200012207031200,26.3160991668701170,36.2574005126953100,235.7960968017578000,-114.0065994262695300,26.2787704467773440,27.2796592712402340,82,125,102,87,62,13575,2186502372,2205384155,2207969664,2150503899,2166635181,2175898285,2175429156,2150005449,911,-2,8,62061
1346002022,5805,65.8000030517578100,26.3791999816894530,36.2346992492675800,235.9234924316406200,-116.4042968750000000,26.3545799255371100,27.2447605133056640,82,123,103,87,62,13568,2189484589,2209376713,2211958107,2150905033,2168268489,2178045211,2177384694,2150261101,1278,-2,9,43523
1346002160,5804,63.2400016784668000,26.4958992004394530,36.2108993530273440,237.3657073974609400,-120.5996017456054700,26.4873409271240230,27.1295509338378900,77,126,104,87,60,13545,2197057764,2218287542,2219769691,2151719990,2173726253,2184945590,2182877531,2150865124,1557,-3,8,11674
1346002239,5805,61.1800003051757800,26.6042003631591800,36.1899986267089840,238.1855010986328000,-123.9776992797851600,26.5943508148193360,27.0523300170898440,77,128,103,87,58,13545,2196807424,2216329408,2216794989,2151905051,2174598592,2185236425,2182258368,2150836699,1575,-2,9,12388
1346002318,5806,59.3800010681152340,26.6935997009277340,36.1797981262207000,238.0762023925781200,-126.6787033081054700,26.6799793243408200,27.0242996215820300,76,129,104,87,61,13543,2205230363,2227227446,2227404772,2152947218,2179631753,2191659666,2187747849,2151490386,1709,-2,8,61376
1346002408,5805,57.1500015258789060,26.8309993743896500,36.1661987304687500,238.2310943603515600,-131.3786926269531200,26.8291492462158200,26.9603195190429700,74,129,103,87,59,13533,2211605924,2234104338,2233255716,2153850962,2184477860,2197330532,2191801837,2152040621,2019,-2,8,43812
1346002463,5806,55.3899993896484400,27.0323009490966800,36.1629981994628900,238.1300048828125000,-136.9217987060547000,27.0053291320800780,26.8974800109863280,73,129,104,87,59,13537,2211179510,2231852032,2229821037,2153894875,2184614774,2196428096,2190090139,2151892608,1955,-2,8,7296
1346002605,5805,53.5000000000000000,27.1650009155273440,36.1437988281250000,238.5308074951172000,-140.6690979003906200,27.1245899200439450,26.8345394134521500,70,131,104,86,60,13556,2210788269,2230116379,2227484224,2154084580,2186105819,2197717165,2190561746,2151960621,2202,-2,8,32488
1346002662,5806,52.9700012207031250,27.2318992614746100,36.1315994262695300,238.3531036376953000,-143.1116943359375000,27.2024002075195300,26.8126697540283200,70,131,104,89,59,13548,2207926491,2225650130,2222672896,2153833435,2184741513,2195530523,2188331291,2151732498,2535,-2,8,18587
1346002730,5807,51.7000007629394500,27.3577003479003900,36.1259994506835940,238.5160980224609400,-147.4862060546875000,27.3418903350830080,26.7525291442871100,71,132,104,89,61,13542,2219614226,2240177051,2236839561,2155587492,2193060498,2205832603,2196645330,2152740178,2645,-3,9,63983
1346002787,5804,49.5800018310546900,27.4626007080078120,36.1049003601074200,238.8849029541015600,-150.5782928466797000,27.4405994415283200,26.6989097595214840,68,132,106,89,59,13541,2229666331,2251546313,2247341732,2157546203,2200516690,2214338166,2203174052,2153698294,2284,-2,8,1752
1346002844,5808,47.6599998474121100,27.5993995666503900,36.0667991638183600,238.8692932128906200,-154.4696960449218800,27.5649394989013670,26.6524906158447270,68,136,107,88,60,13539,2235728667,2258145929,2253298386,2158845321,2206362761,2220773924,2208087945,2154486720,1838,-2,8,52437
1346003068,5804,45.8600006103515600,27.7651996612548830,36.0099983215332000,238.5355987548828000,-161.0272064208984400,27.7748107910156250,26.5876903533935550,65,133,104,88,58,13548,2224364498,2241107099,2234959268,2157331547,2201292562,2212071597,2199279762,2153508096,2116,-3,8,40849
1346003161,5807,43.8800010681152340,28.0053005218505860,35.9752998352050800,236.8869934082031200,-167.6251068115234400,27.9864006042480470,26.5798492431640620,64,134,104,89,58,13539,2247165065,2269263497,2262465627,2161770505,2219683702,2233541165,2216156315,2155870500,1816,-3,8,45875
1346003360,5804,41.8400001525878900,28.0974998474121100,35.9584007263183600,235.5122985839843800,-171.4898986816406200,28.1105403900146500,26.5932807922363280,64,132,104,88,56,13549,2262151058,2286795364,2279828489,2165745508,2235300854,2250508361,2228532278,2157631076,836,-2,8,20737
1346003441,5806,39.9500007629394500,28.1972007751464840,35.9283981323242200,233.8574066162109400,-174.5462036132812500,28.2088108062744140,26.6293907165527340,63,128,105,88,58,13549,2275286857,2302433590,2295482066,2169837714,2250811547,2267007305,2240087954,2159377572,3368,-2,8,50503